#timestamp,LO_Frequency,Hit,StdDev 
1592420415.8,286047000.1,N
1592420435.7,286046999.8,N
1592420455.5,286047000.2,N
1592420475.3,286047001.0,N
1592420495.2,286047000.9,N
1592420515.0,286046998.1,N
1592420515.9,286046998.1,N
1592420535.8,286047002.5,N
1592420555.6,286047000.3,N
1592420575.4,286047000.7,N
1592420595.3,286047000.7,N
1592420615.1,286047000.8,N
1592420635.9,286047001.0,N
1592420655.7,286047000.7,N
1592420675.5,286047001.2,N
1592420695.4,286047000.3,N
1592420715.2,286047002.1,N
1592420735.1,286047002.7,N
1592420736.0,286047002.7,N
1592420755.8,286046999.8,N
1592420775.6,286047002.6,N
1592420795.5,286047002.3,N
1592420815.3,286047001.6,N
1592420835.1,286047004.4,Y
1592420855.9,286047001.3,P
1592420875.7,286047002.7,P
1592420895.6,286047001.6,N
1592420915.4,286046999.8,N
1592420935.2,286047002.7,N
1592420955.3,286046998.2,N
1592420975.1,286047000.8,N
1592420976.0,286047000.8,N
1592420995.8,286047001.1,N
1592421015.7,286046998.5,N
1592421035.5,286047001.1,N
1592421055.3,286047000.6,N
1592421075.2,286047002.3,N
1592421095.0,286047000.2,N
1592421095.9,286047000.2,N
1592421115.8,286047000.5,N
1592421135.6,286046999.7,N
1592421155.4,286047000.9,N
1592421175.3,286047001.1,N
1592421195.1,286046998.1,N
1592421215.9,286047000.1,N
1592421235.7,286046998.1,N
1592421255.5,286047000.0,N
1592421275.4,286047000.3,N
1592421295.2,286047000.5,N
1592421315.0,286047000.2,N
1592421315.9,286047000.2,N
1592421335.8,286047002.3,N
1592421355.6,286046999.7,N
1592421375.5,286047002.1,N
1592421395.3,286047002.4,N
1592421415.1,286047002.3,N
1592421435.9,286047000.4,N
1592421455.7,286046999.9,N
1592421475.6,286046999.8,N
1592421495.4,286047002.3,N
1592421515.2,286047000.3,N
1592421535.1,286047002.7,N
1592421536.0,286047002.7,N
1592421555.8,286047002.7,N
1592421575.6,286047002.8,N
1592421595.5,286047002.4,N
1592421615.3,286047001.6,N
1592421635.2,286047001.3,N
1592421655.9,286047002.6,N
1592421675.7,286047002.6,N
1592421695.6,286047002.7,N
1592421715.4,286046999.9,N
1592421735.3,286047005.4,Y
1592421755.1,286047001.3,P
1592421756.0,286047001.3,P
1592421775.8,286047002.4,P
1592421795.7,286047003.6,Y
1592421815.5,286047000.9,P
1592421835.4,286046998.5,P
1592421855.2,286047000.0,N
1592421875.0,286047004.1,Y
1592421875.9,286047004.1,P
1592421895.8,286047003.8,N
1592421915.6,286047002.9,N
1592421935.4,286047002.3,N
1592421955.3,286047000.1,N
1592421975.1,286047004.0,N
1592421995.9,286047005.9,Y
1592422015.7,286047001.3,P
1592422035.5,286047003.2,P
1592422055.4,286047003.1,P
1592422075.2,286047001.4,N
1592422095.1,286047003.5,Y
1592422096.0,286047003.5,P
1592422115.8,286046999.7,N
1592422135.6,286046999.7,N
1592422155.5,286047002.2,N
1592422175.3,286047004.0,N
1592422195.2,286047003.1,N
1592422215.9,286047004.2,N
1592422235.7,286047001.4,N
1592422255.6,286047003.8,N
1592422275.4,286046999.8,N
1592422295.2,286047000.1,N
1592422315.1,286047002.5,N
1592422316.0,286047002.5,N
1592422335.8,286047002.4,N
1592422355.7,286047001.9,N
1592422375.5,286047002.6,N
1592422395.3,286047000.6,N
1592422415.2,286047002.3,N
1592422435.0,286047005.7,Y
1592422435.9,286047005.7,P
1592422455.8,286047003.9,N
1592422475.6,286047002.4,N
1592422495.4,286047003.8,N
1592422515.3,286047001.9,N
1592422535.1,286047000.1,N
1592422555.9,286047002.5,N
1592422575.7,286047002.2,N
1592422595.5,286047002.5,N
1592422615.4,286047002.8,N
1592422635.2,286047001.9,N
1592422655.1,286047001.0,N
1592422656.0,286047001.0,N
1592422675.8,286046998.6,N
1592422695.6,286046999.3,N
1592422715.5,286046996.9,N
1592422735.3,286046997.1,N
1592422755.1,286046997.5,N
1592422775.9,286046997.2,N
1592422795.7,286046997.6,N
1592422815.6,286046997.9,N
1592422835.4,286046995.3,N
1592422855.2,286046995.6,N
1592422875.1,286046995.0,N
1592422876.0,286046995.0,N
1592422895.8,286046997.9,N
1592422915.7,286046996.9,N
1592422935.5,286046997.1,N
1592422955.3,286046997.6,N
1592422975.2,286046997.3,N
1592422995.0,286046995.2,N
1592422995.9,286046995.2,N
1592423015.8,286046994.9,N
1592423035.6,286046993.4,N
1592423055.4,286046994.0,N
1592423075.3,286046993.9,N
1592423095.1,286046994.5,N
1592423115.9,286046993.4,N
1592423135.7,286046993.6,N
1592423155.5,286046993.6,N
1592423175.4,286046994.5,N
1592423195.2,286046993.8,N
1592423215.0,286046994.3,N
1592423216.0,286046994.3,Y
1592423235.8,286046997.4,P
1592423255.6,286046994.9,P
1592423275.5,286046994.9,P
1592423295.3,286046994.9,Y
1592423315.1,286046999.8,P
1592423335.9,286047002.6,N
1592423355.7,286047002.8,N
1592423375.6,286047000.0,N
1592423395.4,286047000.0,N
1592423415.2,286047002.4,N
1592423435.1,286047001.5,N
1592423436.0,286047001.5,N
1592423455.8,286047001.6,N
1592423475.7,286047002.2,N
1592423495.5,286047002.5,N
1592423515.3,286046998.6,N
1592423535.2,286047002.7,N
1592423555.0,286047000.4,N
1592423555.9,286047000.4,N
1592423575.7,286047000.9,N
1592423595.6,286047000.1,N
1592423615.4,286047000.2,N
1592423635.3,286047000.8,N
1592423655.1,286046998.6,N
1592423656.0,286046998.6,N
1592423675.8,286046998.4,N
1592423695.7,286046998.5,N
1592423715.5,286047000.9,N
1592423735.4,286047002.4,N
1592423755.2,286047000.5,N
1592423775.0,286046998.9,N
1592423775.9,286046998.9,N
1592423795.8,286047001.2,N
1592423815.6,286046999.1,N
1592423835.4,286046998.9,N
1592423855.3,286046996.5,N
1592423875.1,286046999.1,N
1592423895.9,286046999.6,N
1592423915.7,286046998.8,N
1592423935.5,286046998.1,N
1592423955.4,286047000.5,N
1592423975.2,286046998.2,N
1592423995.1,286046998.5,N
1592423996.0,286046998.5,N
